When you browse on this site, cookies collect data to enhance your experience and personalize the content and advertising you see.
Visit our Privacy Policy to learn more. By continuing to use the site, you agree to this use of cookies and data.
  • In Czech Republic
  • List of Countries
  • For 7 days
  • Water Temperature
  • Weather Map
  • Weather Widgets
  • user-avatar
    Login

    Hourly Weather San Luis

    Today, 9 April, Thursday

    Time Temperature Precipitation Wind Pressure Humidity
    00:00 +14°C° 0 mm 3 mps 702 mmHg 56%
    01:00 +13°C° 0 mm 3 mps 702 mmHg 58%
    02:00 +13°C° 0 mm 3 mps 702 mmHg 60%
    03:00 +13°C° 0 mm 3 mps 702 mmHg 61%
    04:00 +12°C° 0 mm 3 mps 701 mmHg 63%
    05:00 +13°C° 0 mm 2 mps 701 mmHg 64%
    06:00 +14°C° 0 mm 2 mps 702 mmHg 61%
    07:00 +15°C° 0 mm 2 mps 702 mmHg 58%
    08:00 +16°C° 0 mm 2 mps 702 mmHg 54%
    09:00 +18°C° 0 mm 3 mps 703 mmHg 51%
    10:00 +19°C° 0 mm 4 mps 703 mmHg 47%
    11:00 +21°C° 0 mm 4 mps 703 mmHg 43%
    12:00 +22°C° 0 mm 4 mps 703 mmHg 42%
    13:00 +23°C° 0 mm 4 mps 702 mmHg 41%
    14:00 +25°C° 0 mm 4 mps 702 mmHg 39%
    15:00 +23°C° 0 mm 4 mps 701 mmHg 40%
    16:00 +23°C° 0 mm 4 mps 701 mmHg 40%
    17:00 +23°C° 0 mm 4 mps 700 mmHg 41%
    18:00 +21°C° 0 mm 4 mps 700 mmHg 46%
    19:00 +19°C° 0 mm 4 mps 700 mmHg 51%
    20:00 +17°C° 0 mm 3 mps 700 mmHg 56%
    21:00 +17°C° 0 mm 3 mps 701 mmHg 57%
    22:00 +16°C° 0 mm 3 mps 701 mmHg 58%
    23:00 +16°C° 0 mm 3 mps 701 mmHg 59%

    Tomorrow, 10 April, Friday

    Time Temperature Precipitation Wind Pressure Humidity
    00:00 +16°C° 0 mm 3 mps 701 mmHg 59%
    01:00 +14°C° 0 mm 4 mps 700 mmHg 59%
    02:00 +14°C° 0 mm 4 mps 700 mmHg 59%
    03:00 +14°C° 0 mm 4 mps 700 mmHg 60%
    04:00 +14°C° 0 mm 3 mps 699 mmHg 61%
    05:00 +13°C° 0 mm 3 mps 699 mmHg 62%
    06:00 +14°C° 0 mm 4 mps 699 mmHg 58%
    07:00 +15°C° 0 mm 4 mps 700 mmHg 54%
    08:00 +18°C° 0 mm 4 mps 700 mmHg 50%
    09:00 +19°C° 0 mm 4 mps 700 mmHg 46%
    10:00 +21°C° 0 mm 5 mps 701 mmHg 42%
    11:00 +23°C° 0 mm 5 mps 701 mmHg 38%
    12:00 +25°C° 0 mm 5 mps 700 mmHg 37%
    13:00 +26°C° 0 mm 5 mps 700 mmHg 35%
    14:00 +26°C° 0 mm 5 mps 699 mmHg 34%
    15:00 +26°C° 0 mm 5 mps 698 mmHg 35%
    16:00 +26°C° 0 mm 5 mps 698 mmHg 36%
    17:00 +25°C° 0 mm 5 mps 697 mmHg 37%
    18:00 +22°C° 0 mm 5 mps 697 mmHg 43%
    19:00 +20°C° 0 mm 5 mps 697 mmHg 49%
    20:00 +18°C° 0 mm 4 mps 697 mmHg 55%
    21:00 +17°C° 0 mm 5 mps 697 mmHg 54%
    22:00 +17°C° 0 mm 6 mps 697 mmHg 53%
    23:00 +16°C° 0 mm 6 mps 698 mmHg 53%

    Day after tomorrow, 11 April, Saturday

    Time Temperature Precipitation Wind Pressure Humidity
    00:00 +16°C° 0 mm 6 mps 697 mmHg 53%
    01:00 +16°C° 0 mm 6 mps 697 mmHg 53%
    02:00 +15°C° 0 mm 6 mps 696 mmHg 53%
    03:00 +15°C° 0 mm 5 mps 696 mmHg 55%
    04:00 +15°C° 0 mm 5 mps 696 mmHg 56%
    05:00 +14°C° 0 mm 4 mps 696 mmHg 58%
    06:00 +15°C° 0 mm 4 mps 696 mmHg 57%
    07:00 +17°C° 0 mm 3 mps 697 mmHg 55%
    08:00 +18°C° 0 mm 3 mps 697 mmHg 54%
    09:00 +19°C° 0 mm 4 mps 698 mmHg 49%
    10:00 +21°C° 0 mm 4 mps 698 mmHg 44%
    11:00 +23°C° 0 mm 5 mps 699 mmHg 40%
    12:00 +25°C° 0 mm 5 mps 699 mmHg 38%
    13:00 +25°C° 0 mm 5 mps 698 mmHg 37%
    14:00 +26°C° 0 mm 5 mps 698 mmHg 35%
    15:00 +26°C° 0 mm 4 mps 698 mmHg 37%
    16:00 +25°C° 0 mm 4 mps 697 mmHg 38%
    17:00 +23°C° 0 mm 4 mps 697 mmHg 40%
    18:00 +22°C° 0 mm 3 mps 697 mmHg 45%
    19:00 +20°C° 0 mm 3 mps 697 mmHg 51%
    20:00 +18°C° 0 mm 2 mps 697 mmHg 57%
    21:00 +17°C° 0 mm 2 mps 697 mmHg 58%
    22:00 +17°C° 0 mm 2 mps 697 mmHg 59%
    23:00 +17°C° 0 mm 2 mps 697 mmHg 61%

    12 April, Sunday

    Time Temperature Precipitation Wind Pressure Humidity
    00:00 +16°C° 0 mm 2 mps 697 mmHg 62%
    01:00 +16°C° 0 mm 2 mps 697 mmHg 63%
    02:00 +16°C° 0 mm 2 mps 696 mmHg 65%
    03:00 +16°C° 0 mm 2 mps 696 mmHg 64%
    04:00 +16°C° 0 mm 2 mps 696 mmHg 64%
    05:00 +16°C° 0 mm 2 mps 696 mmHg 64%
    06:00 +17°C° 0 mm 2 mps 696 mmHg 62%
    07:00 +18°C° 0 mm 2 mps 696 mmHg 59%
    08:00 +19°C° 0 mm 2 mps 697 mmHg 57%
    09:00 +20°C° 0.1 mm 3 mps 697 mmHg 54%
    10:00 +21°C° 0.1 mm 3 mps 697 mmHg 51%
    11:00 +22°C° 0.1 mm 3 mps 697 mmHg 49%
    12:00 +21°C° 0.2 mm 4 mps 697 mmHg 53%
    13:00 +20°C° 0.2 mm 4 mps 696 mmHg 57%
    14:00 +19°C° 0.2 mm 4 mps 696 mmHg 61%
    15:00 +19°C° 0.1 mm 4 mps 696 mmHg 65%
    16:00 +17°C° 0.1 mm 5 mps 696 mmHg 68%
    17:00 +16°C° 0.1 mm 6 mps 696 mmHg 72%
    18:00 +15°C° 1.1 mm 6 mps 696 mmHg 77%
    19:00 +14°C° 1.1 mm 7 mps 697 mmHg 82%
    20:00 +12°C° 1.1 mm 8 mps 697 mmHg 87%
    21:00 +13°C° 0.2 mm 6 mps 698 mmHg 87%
    22:00 +12°C° 0.2 mm 5 mps 698 mmHg 86%
    23:00 +12°C° 0.2 mm 4 mps 698 mmHg 86%

    13 April, Monday

    Time Temperature Precipitation Wind Pressure Humidity
    00:00 +12°C° 0 mm 3 mps 698 mmHg 84%
    01:00 +13°C° 0 mm 2 mps 698 mmHg 82%
    02:00 +12°C° 0 mm 1 mps 698 mmHg 81%
    03:00 +12°C° 0 mm 2 mps 698 mmHg 81%
    04:00 +12°C° 0 mm 2 mps 698 mmHg 82%
    05:00 +10°C° 0 mm 2 mps 698 mmHg 82%
    06:00 +12°C° 0 mm 2 mps 699 mmHg 80%
    07:00 +13°C° 0 mm 2 mps 700 mmHg 77%
    08:00 +14°C° 0 mm 2 mps 700 mmHg 75%
    09:00 +16°C° 0 mm 3 mps 701 mmHg 66%
    10:00 +18°C° 0 mm 4 mps 701 mmHg 58%
    11:00 +20°C° 0 mm 4 mps 701 mmHg 50%
    12:00 +21°C° 0 mm 4 mps 701 mmHg 46%
    13:00 +21°C° 0 mm 4 mps 701 mmHg 41%
    14:00 +22°C° 0 mm 4 mps 701 mmHg 36%
    15:00 +22°C° 0 mm 5 mps 700 mmHg 37%
    16:00 +21°C° 0 mm 5 mps 700 mmHg 39%
    17:00 +21°C° 0 mm 5 mps 700 mmHg 40%
    18:00 +19°C° 0 mm 5 mps 700 mmHg 45%
    19:00 +16°C° 0 mm 5 mps 700 mmHg 49%
    20:00 +14°C° 0 mm 5 mps 700 mmHg 53%
    21:00 +14°C° 0 mm 4 mps 700 mmHg 51%
    22:00 +13°C° 0 mm 4 mps 701 mmHg 50%
    23:00 +13°C° 0 mm 4 mps 701 mmHg 48%

    14 April, Tuesday

    Time Temperature Precipitation Wind Pressure Humidity
    00:00 +12°C° 0 mm 4 mps 701 mmHg 46%
    01:00 +12°C° 0 mm 3 mps 701 mmHg 45%
    02:00 +12°C° 0 mm 3 mps 702 mmHg 43%
    03:00 +12°C° 0 mm 3 mps 702 mmHg 42%
    04:00 +12°C° 0 mm 3 mps 701 mmHg 42%
    05:00 +12°C° 0 mm 3 mps 701 mmHg 41%
    06:00 +13°C° 0 mm 3 mps 702 mmHg 39%
    07:00 +13°C° 0 mm 3 mps 702 mmHg 38%
    08:00 +14°C° 0 mm 3 mps 703 mmHg 37%
    09:00 +17°C° 0 mm 3 mps 703 mmHg 33%
    10:00 +18°C° 0 mm 3 mps 703 mmHg 30%
    11:00 +20°C° 0 mm 3 mps 704 mmHg 26%
    12:00 +21°C° 0 mm 3 mps 703 mmHg 26%
    13:00 +22°C° 0 mm 3 mps 703 mmHg 26%
    14:00 +22°C° 0 mm 3 mps 702 mmHg 26%
    15:00 +22°C° 0 mm 4 mps 702 mmHg 27%
    16:00 +21°C° 0 mm 4 mps 702 mmHg 28%
    17:00 +21°C° 0 mm 5 mps 701 mmHg 29%
    18:00 +19°C° 0 mm 5 mps 701 mmHg 32%
    19:00 +16°C° 0 mm 5 mps 701 mmHg 36%
    20:00 +15°C° 0 mm 5 mps 701 mmHg 39%
    21:00 +14°C° 0 mm 5 mps 701 mmHg 41%
    22:00 +14°C° 0 mm 4 mps 701 mmHg 42%
    23:00 +14°C° 0 mm 4 mps 702 mmHg 44%
    Show more